Time,TemperatureF,DewpointF,PressureIn,WindDirection,WindDirectionDegrees,WindSpeedMPH,WindSpeedGustMPH,Humidity,HourlyPrecipIn,Conditions,Clouds,dailyrainin,SoftwareType,DateUTC
2013-02-15 00:01:00,47.0,41.0,31.12,West,270,0.0,0.0,79,-99.99,,,-99.99,,2013-02-15 08:01:00,
2013-02-15 00:11:00,47.0,41.0,31.12,West,270,0.0,0.0,79,-99.99,,,-99.99,,2013-02-15 08:11:00,
2013-02-15 00:21:00,47.0,41.0,31.12,West,270,0.0,0.0,80,-99.99,,,-99.99,,2013-02-15 08:21:00,
2013-02-15 00:31:00,47.0,41.0,31.12,West,270,0.0,0.0,79,-99.99,,,-99.99,,2013-02-15 08:31:00,
2013-02-15 00:41:00,47.0,41.0,31.12,West,270,0.0,0.0,79,-99.99,,,-99.99,,2013-02-15 08:41:00,
2013-02-15 00:52:00,47.0,41.0,31.12,West,270,0.0,0.0,79,-99.99,,,-99.99,,2013-02-15 08:52:00,
2013-02-15 01:01:00,47.0,41.0,31.12,West,270,0.0,0.0,79,-99.99,,,-99.99,,2013-02-15 09:01:00,
2013-02-15 01:11:00,47.0,41.0,31.12,West,270,0.0,0.0,79,-99.99,,,-99.99,,2013-02-15 09:11:00,
2013-02-15 01:21:00,47.0,41.0,31.12,West,270,0.0,0.0,78,-99.99,,,-99.99,,2013-02-15 09:21:00,
2013-02-15 01:31:00,47.0,41.0,31.12,West,270,0.0,0.0,78,-99.99,,,-99.99,,2013-02-15 09:31:00,
2013-02-15 01:41:00,47.0,41.0,31.12,West,270,0.0,0.0,78,-99.99,,,-99.99,,2013-02-15 09:41:00,
2013-02-15 01:52:00,47.0,41.0,31.12,West,270,0.0,0.0,78,-99.99,,,-99.99,,2013-02-15 09:52:00,
2013-02-15 02:01:00,47.0,41.0,31.11,West,270,0.0,0.0,79,-99.99,,,-99.99,,2013-02-15 10:01:00,
2013-02-15 02:11:00,47.0,41.0,31.11,West,270,0.0,0.0,79,-99.99,,,-99.99,,2013-02-15 10:11:00,
2013-02-15 02:21:00,46.0,40.0,31.11,West,270,0.0,0.0,79,-99.99,,,-99.99,,2013-02-15 10:21:00,
2013-02-15 02:31:00,46.0,40.0,31.11,West,270,0.0,0.0,79,-99.99,,,-99.99,,2013-02-15 10:31:00,
2013-02-15 02:41:00,46.0,40.0,31.11,West,270,0.0,0.0,79,-99.99,,,-99.99,,2013-02-15 10:41:00,
2013-02-15 02:52:00,45.0,39.0,31.09,West,270,0.0,0.0,80,-99.99,,,-99.99,,2013-02-15 10:52:00,
2013-02-15 03:01:00,44.0,39.0,31.10,West,270,0.0,0.0,81,-99.99,,,-99.99,,2013-02-15 11:01:00,
2013-02-15 03:11:00,44.0,39.0,31.10,West,270,0.0,0.0,81,-99.99,,,-99.99,,2013-02-15 11:11:00,
2013-02-15 03:22:00,44.0,39.0,31.09,West,270,0.0,0.0,82,-99.99,,,-99.99,,2013-02-15 11:22:00,
2013-02-15 03:31:00,44.0,39.0,31.08,West,270,0.0,0.0,82,-99.99,,,-99.99,,2013-02-15 11:31:00,
2013-02-15 03:42:00,44.0,39.0,31.08,West,270,0.0,0.0,82,-99.99,,,-99.99,,2013-02-15 11:42:00,
2013-02-15 03:52:00,43.0,38.0,31.07,West,270,0.0,0.0,81,-99.99,,,-99.99,,2013-02-15 11:52:00,
2013-02-15 04:01:00,43.0,38.0,31.07,West,270,0.0,0.0,82,-99.99,,,-99.99,,2013-02-15 12:01:00,
2013-02-15 04:11:00,43.0,38.0,31.07,West,270,0.0,0.0,82,-99.99,,,-99.99,,2013-02-15 12:11:00,
2013-02-15 04:21:00,43.0,38.0,31.07,West,270,0.0,0.0,82,-99.99,,,-99.99,,2013-02-15 12:21:00,
2013-02-15 04:31:00,43.0,38.0,31.06,West,270,0.0,0.0,83,-99.99,,,-99.99,,2013-02-15 12:31:00,
2013-02-15 04:42:00,43.0,38.0,31.06,West,270,0.0,0.0,83,-99.99,,,-99.99,,2013-02-15 12:42:00,
2013-02-15 04:52:00,43.0,38.0,31.06,West,270,0.0,0.0,83,-99.99,,,-99.99,,2013-02-15 12:52:00,
2013-02-15 05:02:00,43.0,38.0,31.07,West,270,0.0,0.0,83,-99.99,,,-99.99,,2013-02-15 13:02:00,
2013-02-15 05:11:00,43.0,38.0,31.07,West,270,0.0,0.0,83,-99.99,,,-99.99,,2013-02-15 13:11:00,
2013-02-15 05:21:00,43.0,38.0,31.06,West,270,0.0,0.0,84,-99.99,,,-99.99,,2013-02-15 13:21:00,
2013-02-15 05:31:00,42.0,38.0,31.06,West,270,0.0,0.0,84,-99.99,,,-99.99,,2013-02-15 13:31:00,
2013-02-15 05:41:00,42.0,38.0,31.06,West,270,0.0,0.0,84,-99.99,,,-99.99,,2013-02-15 13:41:00,
2013-02-15 05:52:00,43.0,38.0,31.05,West,270,0.0,0.0,84,-99.99,,,-99.99,,2013-02-15 13:52:00,
2013-02-15 06:01:00,43.0,38.0,31.05,West,270,0.0,0.0,83,-99.99,,,-99.99,,2013-02-15 14:01:00,
2013-02-15 06:11:00,43.0,38.0,31.05,West,270,0.0,0.0,83,-99.99,,,-99.99,,2013-02-15 14:11:00,
2013-02-15 06:21:00,42.0,38.0,31.04,West,270,0.0,0.0,84,-99.99,,,-99.99,,2013-02-15 14:21:00,
2013-02-15 06:31:00,42.0,38.0,31.03,West,270,0.0,0.0,85,-99.99,,,-99.99,,2013-02-15 14:31:00,
2013-02-15 06:41:00,42.0,38.0,31.03,West,270,0.0,0.0,85,-99.99,,,-99.99,,2013-02-15 14:41:00,
2013-02-15 06:52:00,42.0,38.0,31.04,West,270,0.0,0.0,84,-99.99,,,-99.99,,2013-02-15 14:52:00,
2013-02-15 07:01:00,42.0,38.0,31.04,West,270,0.0,0.0,84,-99.99,,,-99.99,,2013-02-15 15:01:00,
2013-02-15 07:11:00,42.0,38.0,31.04,West,270,0.0,0.0,84,-99.99,,,-99.99,,2013-02-15 15:11:00,
2013-02-15 07:21:00,42.0,37.0,31.03,West,270,0.0,0.0,82,-99.99,,,-99.99,,2013-02-15 15:21:00,
2013-02-15 07:32:00,42.0,37.0,31.03,West,270,0.0,0.0,82,-99.99,,,-99.99,,2013-02-15 15:32:00,
2013-02-15 07:41:00,42.0,37.0,31.04,West,270,0.0,0.0,82,-99.99,,,-99.99,,2013-02-15 15:41:00,
2013-02-15 07:52:00,42.0,37.0,31.04,West,270,0.0,0.0,82,-99.99,,,-99.99,,2013-02-15 15:52:00,
2013-02-15 08:01:00,43.0,38.0,31.03,West,270,0.0,0.0,81,-99.99,,,-99.99,,2013-02-15 16:01:00,
2013-02-15 08:11:00,43.0,38.0,31.03,West,270,0.0,0.0,81,-99.99,,,-99.99,,2013-02-15 16:11:00,
2013-02-15 08:21:00,45.0,39.0,31.03,West,270,0.0,0.0,79,-99.99,,,-99.99,,2013-02-15 16:21:00,
2013-02-15 08:31:00,45.0,39.0,31.03,West,270,0.0,0.0,79,-99.99,,,-99.99,,2013-02-15 16:31:00,
2013-02-15 08:42:00,45.0,39.0,31.03,West,270,0.0,0.0,79,-99.99,,,-99.99,,2013-02-15 16:42:00,
2013-02-15 08:52:00,45.0,39.0,31.03,West,270,0.0,0.0,79,-99.99,,,-99.99,,2013-02-15 16:52:00,
2013-02-15 09:01:00,50.0,41.0,31.04,West,270,0.0,0.0,72,-99.99,,,-99.99,,2013-02-15 17:01:00,
2013-02-15 09:11:00,53.0,43.0,31.04,West,270,0.0,0.0,68,-99.99,,,-99.99,,2013-02-15 17:11:00,
2013-02-15 09:21:00,53.0,43.0,31.04,West,270,0.0,0.0,68,-99.99,,,-99.99,,2013-02-15 17:21:00,
2013-02-15 09:31:00,54.0,43.0,31.04,West,270,0.0,0.0,66,-99.99,,,-99.99,,2013-02-15 17:31:00,
2013-02-15 09:41:00,54.0,43.0,31.04,West,270,0.0,0.0,66,-99.99,,,-99.99,,2013-02-15 17:41:00,
2013-02-15 09:52:00,53.0,42.0,31.03,West,270,0.0,0.0,65,-99.99,,,-99.99,,2013-02-15 17:52:00,
2013-02-15 10:01:00,54.0,43.0,31.03,West,270,0.0,0.0,65,-99.99,,,-99.99,,2013-02-15 18:01:00,
2013-02-15 10:21:00,55.0,43.0,31.02,West,270,0.0,0.0,65,-99.99,,,-99.99,,2013-02-15 18:21:00,
2013-02-15 10:31:00,55.0,43.0,31.01,West,270,0.0,0.0,65,-99.99,,,-99.99,,2013-02-15 18:31:00,
2013-02-15 10:41:00,55.0,43.0,31.01,West,270,0.0,0.0,65,-99.99,,,-99.99,,2013-02-15 18:41:00,
2013-02-15 10:52:00,56.0,44.0,31.02,West,270,0.0,0.0,65,-99.99,,,-99.99,,2013-02-15 18:52:00,
2013-02-15 11:01:00,56.0,44.0,31.02,West,270,0.0,0.0,63,-99.99,,,-99.99,,2013-02-15 19:01:00,
2013-02-15 11:21:00,56.0,44.0,31.01,West,270,0.0,0.0,63,-99.99,,,-99.99,,2013-02-15 19:21:00,
2013-02-15 11:31:00,55.0,43.0,31.01,West,270,0.0,0.0,63,-99.99,,,-99.99,,2013-02-15 19:31:00,
2013-02-15 11:41:00,55.0,43.0,31.01,West,270,0.0,0.0,63,-99.99,,,-99.99,,2013-02-15 19:41:00,
2013-02-15 11:51:00,58.0,45.0,30.99,West,270,0.0,0.0,62,-99.99,,,-99.99,,2013-02-15 19:51:00,
2013-02-15 12:01:00,58.0,45.0,30.99,West,270,0.0,0.0,63,-99.99,,,-99.99,,2013-02-15 20:01:00,
2013-02-15 12:21:00,61.0,46.0,30.98,West,270,0.0,0.0,58,-99.99,,,-99.99,,2013-02-15 20:21:00,
2013-02-15 12:32:00,62.0,47.0,30.98,West,270,0.0,0.0,58,-99.99,,,-99.99,,2013-02-15 20:32:00,
2013-02-15 12:42:00,62.0,47.0,30.98,West,270,0.0,0.0,58,-99.99,,,-99.99,,2013-02-15 20:42:00,
2013-02-15 12:52:00,62.0,46.0,30.97,West,270,0.0,0.0,56,-99.99,,,-99.99,,2013-02-15 20:52:00,
2013-02-15 13:01:00,62.0,46.0,30.96,West,270,0.0,0.0,55,-99.99,,,-99.99,,2013-02-15 21:01:00,
2013-02-15 13:21:00,62.0,46.0,30.95,West,270,0.0,0.0,55,-99.99,,,-99.99,,2013-02-15 21:21:00,
2013-02-15 13:31:00,62.0,45.0,30.95,West,270,0.0,0.0,54,-99.99,,,-99.99,,2013-02-15 21:31:00,
2013-02-15 13:42:00,62.0,45.0,30.95,West,270,0.0,0.0,54,-99.99,,,-99.99,,2013-02-15 21:42:00,
2013-02-15 13:52:00,62.0,45.0,30.93,West,270,0.0,0.0,54,-99.99,,,-99.99,,2013-02-15 21:52:00,
2013-02-15 14:01:00,61.0,45.0,30.93,West,270,0.0,0.0,55,-99.99,,,-99.99,,2013-02-15 22:01:00,
2013-02-15 14:11:00,61.0,44.0,30.92,West,270,0.0,0.0,53,-99.99,,,-99.99,,2013-02-15 22:11:00,
2013-02-15 14:21:00,61.0,44.0,30.92,West,270,0.0,0.0,53,-99.99,,,-99.99,,2013-02-15 22:21:00,
2013-02-15 14:31:00,61.0,44.0,30.91,West,270,0.0,0.0,54,-99.99,,,-99.99,,2013-02-15 22:31:00,
2013-02-15 14:41:00,61.0,44.0,30.91,West,270,0.0,0.0,54,-99.99,,,-99.99,,2013-02-15 22:41:00,
2013-02-15 14:52:00,61.0,45.0,30.91,West,270,0.0,0.0,55,-99.99,,,-99.99,,2013-02-15 22:52:00,
2013-02-15 15:01:00,60.0,44.0,30.91,West,270,0.0,0.0,55,-99.99,,,-99.99,,2013-02-15 23:01:00,
2013-02-15 15:21:00,60.0,44.0,30.91,West,270,0.0,0.0,55,-99.99,,,-99.99,,2013-02-15 23:21:00,
2013-02-15 15:31:00,60.0,44.0,30.89,West,270,0.0,0.0,55,-99.99,,,-99.99,,2013-02-15 23:31:00,
2013-02-15 15:41:00,60.0,44.0,30.89,West,270,0.0,0.0,55,-99.99,,,-99.99,,2013-02-15 23:41:00,
2013-02-15 15:52:00,60.0,44.0,30.89,West,270,0.0,0.0,56,-99.99,,,-99.99,,2013-02-15 23:52:00,
2013-02-15 16:01:00,60.0,44.0,30.89,West,270,0.0,0.0,56,-99.99,,,-99.99,,2013-02-16 00:01:00,
2013-02-15 16:21:00,60.0,44.0,30.87,West,270,0.0,0.0,55,-99.99,,,-99.99,,2013-02-16 00:21:00,
2013-02-15 16:31:00,60.0,44.0,30.87,West,270,0.0,0.0,55,-99.99,,,-99.99,,2013-02-16 00:31:00,
2013-02-15 16:41:00,60.0,44.0,30.87,West,270,0.0,0.0,55,-99.99,,,-99.99,,2013-02-16 00:41:00,
2013-02-15 16:52:00,59.0,43.0,30.86,West,270,0.0,0.0,56,-99.99,,,-99.99,,2013-02-16 00:52:00,
2013-02-15 17:01:00,58.0,42.0,30.86,West,270,0.0,0.0,56,-99.99,,,-99.99,,2013-02-16 01:01:00,
2013-02-15 17:21:00,58.0,42.0,30.86,West,270,0.0,0.0,56,-99.99,,,-99.99,,2013-02-16 01:21:00,
2013-02-15 17:31:00,57.0,42.0,30.85,West,270,0.0,0.0,58,-99.99,,,-99.99,,2013-02-16 01:31:00,
2013-02-15 17:41:00,57.0,42.0,30.85,West,270,0.0,0.0,58,-99.99,,,-99.99,,2013-02-16 01:41:00,
2013-02-15 17:51:00,56.0,41.0,30.84,West,270,0.0,0.0,58,-99.99,,,-99.99,,2013-02-16 01:51:00,
2013-02-15 18:01:00,56.0,41.0,30.83,West,270,0.0,0.0,58,-99.99,,,-99.99,,2013-02-16 02:01:00,
2013-02-15 18:21:00,55.0,42.0,30.82,West,270,0.0,0.0,61,-99.99,,,-99.99,,2013-02-16 02:21:00,
2013-02-15 18:31:00,55.0,42.0,30.82,West,270,0.0,0.0,61,-99.99,,,-99.99,,2013-02-16 02:31:00,
2013-02-15 18:42:00,55.0,42.0,30.82,West,270,0.0,0.0,61,-99.99,,,-99.99,,2013-02-16 02:42:00,
2013-02-15 18:52:00,54.0,40.0,30.82,West,270,0.0,0.0,60,-99.99,,,-99.99,,2013-02-16 02:52:00,
2013-02-15 19:01:00,53.0,40.0,30.82,West,270,0.0,0.0,61,-99.99,,,-99.99,,2013-02-16 03:01:00,
2013-02-15 19:21:00,52.0,40.0,30.81,West,270,0.0,0.0,63,-99.99,,,-99.99,,2013-02-16 03:21:00,
2013-02-15 19:31:00,52.0,40.0,30.82,West,270,0.0,0.0,63,-99.99,,,-99.99,,2013-02-16 03:31:00,
2013-02-15 19:41:00,52.0,40.0,30.82,West,270,0.0,0.0,63,-99.99,,,-99.99,,2013-02-16 03:41:00,
2013-02-15 19:52:00,52.0,40.0,30.82,West,270,0.0,0.0,63,-99.99,,,-99.99,,2013-02-16 03:52:00,
2013-02-15 20:01:00,52.0,41.0,30.81,West,270,0.0,0.0,65,-99.99,,,-99.99,,2013-02-16 04:01:00,
2013-02-15 20:11:00,50.0,39.0,30.81,West,270,0.0,0.0,65,-99.99,,,-99.99,,2013-02-16 04:11:00,
2013-02-15 20:21:00,50.0,39.0,30.81,West,270,0.0,0.0,65,-99.99,,,-99.99,,2013-02-16 04:21:00,
2013-02-15 20:31:00,50.0,39.0,30.81,West,270,0.0,0.0,65,-99.99,,,-99.99,,2013-02-16 04:31:00,
2013-02-15 20:41:00,50.0,39.0,30.81,West,270,0.0,0.0,65,-99.99,,,-99.99,,2013-02-16 04:41:00,
2013-02-15 20:52:00,50.0,39.0,30.80,West,270,0.0,0.0,67,-99.99,,,-99.99,,2013-02-16 04:52:00,
2013-02-15 21:01:00,49.0,39.0,30.80,West,270,0.0,0.0,68,-99.99,,,-99.99,,2013-02-16 05:01:00,
2013-02-15 21:21:00,48.0,38.0,30.81,West,270,0.0,0.0,68,-99.99,,,-99.99,,2013-02-16 05:21:00,
2013-02-15 21:31:00,48.0,38.0,30.82,West,270,0.0,0.0,69,-99.99,,,-99.99,,2013-02-16 05:31:00,
2013-02-15 21:42:00,48.0,38.0,30.82,West,270,0.0,0.0,69,-99.99,,,-99.99,,2013-02-16 05:42:00,
2013-02-15 21:52:00,47.0,38.0,30.81,West,270,0.0,0.0,70,-99.99,,,-99.99,,2013-02-16 05:52:00,
2013-02-15 22:01:00,47.0,38.0,30.81,West,270,0.0,0.0,70,-99.99,,,-99.99,,2013-02-16 06:01:00,
2013-02-15 22:11:00,47.0,38.0,30.81,West,270,0.0,0.0,70,-99.99,,,-99.99,,2013-02-16 06:11:00,
2013-02-15 22:21:00,47.0,38.0,30.80,West,270,0.0,0.0,70,-99.99,,,-99.99,,2013-02-16 06:21:00,
2013-02-15 22:32:00,47.0,38.0,30.81,West,270,0.0,0.0,70,-99.99,,,-99.99,,2013-02-16 06:32:00,
2013-02-15 22:41:00,47.0,38.0,30.81,West,270,0.0,0.0,70,-99.99,,,-99.99,,2013-02-16 06:41:00,
2013-02-15 22:52:00,46.0,37.0,30.79,West,270,0.0,0.0,71,-99.99,,,-99.99,,2013-02-16 06:52:00,
2013-02-15 23:01:00,45.0,37.0,30.79,West,270,0.0,0.0,72,-99.99,,,-99.99,,2013-02-16 07:01:00,
2013-02-15 23:11:00,45.0,37.0,30.79,West,270,0.0,0.0,72,-99.99,,,-99.99,,2013-02-16 07:11:00,
2013-02-15 23:21:00,45.0,37.0,30.79,West,270,0.0,0.0,74,-99.99,,,-99.99,,2013-02-16 07:21:00,
2013-02-15 23:31:00,45.0,37.0,30.79,West,270,0.0,0.0,74,-99.99,,,-99.99,,2013-02-16 07:31:00,
2013-02-15 23:41:00,45.0,37.0,30.79,West,270,0.0,0.0,74,-99.99,,,-99.99,,2013-02-16 07:41:00,
2013-02-15 23:52:00,45.0,38.0,30.77,West,270,0.0,0.0,75,-99.99,,,-99.99,,2013-02-16 07:52:00,